map of KAJ home
Great Circle Mapper logo
KAJ - Airport
Location
City:  Kajaani, Finland
ICAO / IATA:EFKI / KAJ

Details
Type:Airport (Aerodrome, Airfield)
Use:Public/Civil
Latitude:6417'08"N (64.285472)
Longitude:2741'33"E (27.692414)
Datum:WGS 1984
Elevation:483 ft (147 m)
Variation:10.97E (WMM2015 magnetic declination)
0.17 annual change
Runways:1
Longest:8199 × 157 ft (2499 × 48 m), paved

Time
Time Zone:UTC+2 (DST+3)
Local Time:

Weather
METAR:EFKI 280550Z AUTO 17009KT 130V230 9999 BKN010 BKN073 M03/M04 Q0990

Related Locations
Nearby:
Farthest:NZWD: 11169 mi / 17975 km
McMurdo Station [Williams Field], Ross Island, AQ

Find:

   beyond  
but within

Other Information
Maps:
NOTAMs:
Links:
Sources:

  
flag of Finland   

Sectional Chart

Flight Planning
at skyvector.com

Satellite Image

Google Maps Satellite View

 

Copyright © 2004-2015 Karl L. Swartz. All rights reserved.
The Great Circle Mapper name and logo are trademarks of the Great Circle Mapper.
All other trademarks mentioned herein belong to their respective owners.
Please see credits for attibutions and further copyright information.

  Follow gcmap on Facebook Follow gcmap on Twitter

hCard Microformat

Geo Microformat